Bookmark and Share
Track history (hours):
 

Ufo 3

Last reported at 2014-Apr-19 08:07 UTC. Time now 2014-Apr-19 22:09 UTC.
Position N 44°03' E 009°50'.

Length 28 m.

Type: Passenger vessel. MMSI: 247031600.

NotesDate/timePositionNaut miles runAvg speedWind from/ knotsBaromVisibWave heightAir tempDewpointWater temp
2014-Apr-19 08:07N 44°03' E 009°50'0 0.0
2014-Apr-19 07:33N 44°03' E 009°50'0 0.0
2014-Apr-19 06:33N 44°03' E 009°50'3 0.2
2014-Apr-18 15:33N 44°04' E 009°55'3 3.4
2014-Apr-18 14:33N 44°03' E 009°50'0 0.0
2014-Apr-18 13:33N 44°03' E 009°50'0 0.0
2014-Apr-18 12:33N 44°03' E 009°50'0 0.0
2014-Apr-18 11:33N 44°03' E 009°50'5 5.2
2014-Apr-18 10:33N 44°05' E 009°44'1 0.5
2014-Apr-18 07:33N 44°05' E 009°45'4 3.7
2014-Apr-18 06:33N 44°03' E 009°50'3 0.2
2014-Apr-17 15:33N 44°04' E 009°54'3 3.4
2014-Apr-17 14:33N 44°03' E 009°50'0 0.0
2014-Apr-17 13:33N 44°03' E 009°50'0 0.0
2014-Apr-17 12:33N 44°03' E 009°50'0 0.0
2014-Apr-17 11:33N 44°03' E 009°50'0 0.0
2014-Apr-17 10:33N 44°03' E 009°50'5 5.0
2014-Apr-17 09:33N 44°05' E 009°44'2 2.4
2014-Apr-17 08:33N 44°04' E 009°47'3 3.2
2014-Apr-17 07:33N 44°04' E 009°51'1 0.9
2014-Apr-17 06:33N 44°03' E 009°50'0 0.0
2014-Apr-17 05:33N 44°03' E 009°50'0 0.0
2014-Apr-16 16:14N 44°03' E 009°50'9 7.9
2014-Apr-16 15:04N 44°08' E 009°40'0 0.8
2014-Apr-16 14:27N 44°09' E 009°39'4 4.5
2014-Apr-16 13:27N 44°06' E 009°44'5 5.9
2014-Apr-16 12:33N 44°03' E 009°50'0 0.0
2014-Apr-16 11:33N 44°03' E 009°50'3 2.8
2014-Apr-16 10:33N 44°06' E 009°50'3 2.9
2014-Apr-16 09:33N 44°03' E 009°49'9 7.5
2014-Apr-16 08:25N 44°09' E 009°39'2 2.6
2014-Apr-16 07:32N 44°07' E 009°42'7 7.5
2014-Apr-16 06:33N 44°03' E 009°50'0 0.0
2014-Apr-16 05:33N 44°03' E 009°50'3 0.2
2014-Apr-15 15:33N 44°04' E 009°55'3 3.4
2014-Apr-15 14:33N 44°03' E 009°50'0 0.0
2014-Apr-15 12:34N 44°03' E 009°50'0 0.0
2014-Apr-15 11:34N 44°03' E 009°50'0 0.0
2014-Apr-15 10:34N 44°03' E 009°50'0 0.0
2014-Apr-15 09:34N 44°03' E 009°50'0 0.0
2014-Apr-15 08:34N 44°03' E 009°50'0 0.0
2014-Apr-15 07:34N 44°03' E 009°50'0 0.0
2014-Apr-15 06:34N 44°03' E 009°50'0 0.0
2014-Apr-15 05:34N 44°03' E 009°50'3 0.2
2014-Apr-14 14:34N 44°04' E 009°55'3 3.4
2014-Apr-14 13:34N 44°03' E 009°50'0 0.0
2014-Apr-14 11:34N 44°03' E 009°50'0 0.0
2014-Apr-14 10:33N 44°03' E 009°50'1 1.1
2014-Apr-14 09:34N 44°02' E 009°51'3 3.3
2014-Apr-14 08:33N 44°04' E 009°54'3 3.3
2014-Apr-14 07:34N 44°03' E 009°50'0 0.0
2014-Apr-14 06:34N 44°03' E 009°50'0 0.0
2014-Apr-13 15:29N 44°03' E 009°51'0 0.5
2014-Apr-13 14:34N 44°03' E 009°50'0 0.0
2014-Apr-13 13:34N 44°03' E 009°50'0 0.0
2014-Apr-13 12:34N 44°03' E 009°50'0 0.0
2014-Apr-13 11:34N 44°03' E 009°50'1 0.8
2014-Apr-13 10:34N 44°02' E 009°50'1 1.1
2014-Apr-13 09:33N 44°01' E 009°51'2 1.8
2014-Apr-13 08:33N 44°03' E 009°50'0 0.0
2014-Apr-13 07:34N 44°03' E 009°50'0 0.0
2014-Apr-12 13:31N 44°03' E 009°51'0 0.5
2014-Apr-12 12:34N 44°03' E 009°50'0 0.0
2014-Apr-12 11:33N 44°03' E 009°50'1 0.8
2014-Apr-12 10:34N 44°02' E 009°50'2 1.6
2014-Apr-12 09:33N 44°03' E 009°49'4 1.9
2014-Apr-12 07:20N 44°06' E 009°44'4 5.3
2014-Apr-12 06:33N 44°06' E 009°50'3 0.1
2014-Apr-11 06:34N 44°03' E 009°51'6 0.3
2014-Apr-10 12:11N 43°58' E 009°55'1 0.9
2014-Apr-10 11:33N 43°58' E 009°55'0 0.4
2014-Apr-10 10:33N 43°58' E 009°55'1 1.3
2014-Apr-10 09:33N 43°57' E 009°56'4 4.2
2014-Apr-10 08:33N 43°53' E 009°58'8 8.4
2014-Apr-10 07:33N 44°01' E 009°54'4 3.5
2014-Apr-10 06:33N 44°04' E 009°51'4 0.3
2014-Apr-09 16:33N 44°04' E 009°46'3 2.7
2014-Apr-09 15:32N 44°06' E 009°43'6 5.8
2014-Apr-09 14:33N 44°03' E 009°50'1 1.2
2014-Apr-09 13:34N 44°03' E 009°48'4 1.3
2014-Apr-09 10:25N 44°06' E 009°44'5 6.0
2014-Apr-09 09:33N 44°04' E 009°51'1 1.4
2014-Apr-09 08:33N 44°03' E 009°50'  

Dump ship's entire track history

sailing weather and tide predictions

Ufo 3 — IUNV — position and weather